Find Starlink 30428

NORAD ID: 57906 Int'l Des: 2023-146 Owner: SPXS Country: US Constellation: starlink operational
LEOCIRCULAR

当前视图

正在加载3D地球...

About Starlink 30428

Starlink 30428 (NORAD 57906) is a starlink constellation satellite (v2 mini) launched Sep 20, 2023 by SPXS of US. It operates in LEO, CIRCULAR orbit with a mass of 730.00 kg.

关于 Starlink 30428

正在加载描述...

即将过境

Passes for default location (London). Set your location on the main map for personalized predictions.

高度历史

Loading altitude history...

两行轨道根数

1 57906U 23146R 26171.22073024 .00000912 00000-0 42641-4 0 9993
2 57906 43.0020 95.4466 0000955 265.3282 94.7460 15.27582633151671
Epoch: Jun 20, 2026 • Age: 18 hours

当前状态

高度 485.4 km
速度 7.63 km/s
星下点 36.81°N, 37°W
发射日期 Sep 20, 2023
运行时间 2.7 years
类型 internet

技术详情

分类 Payload
质量 730.00 kg
干质量 700.00 kg
总质量 730.00 kg
长度 0.30 m
直径 4.10 m
跨度 29.00 m
形状 Box + pan
制造商 SPXS
平台类型 Starlink V2M
阶段状态 In Orbit
所有者/国家 SPXS/US

Most Searched